Starlink 32192

operational
NORAD ID: 60316 Int'l Des: 2024-133 Owner: SPXS Country: US Constellation: starlink
LEOCIRCULAR

关于 Starlink 32192

正在加载描述...

实时位置

正在加载3D地球...

即将过境

高度历史

Altitude vs Time

uPlot chart will show altitude changes over time

两行轨道根数

1 60316U 24133R 26038.36955535 .00002219 00000-0 87036-4 0 9991
2 60316 53.1597 77.5072 0001231 101.6357 258.4782 15.30193018 87097
Epoch: Feb 7, 2026 • Age: 9 hours

当前状态

高度 481.6 km
速度 7.62 km/s
星下点 -21.82°S, 128.83°W
发射日期 Jul 28, 2024
运行时间 1.5 years
类型 internet

技术详情

分类 Payload
质量 730.00 kg
干质量 700.00 kg
总质量 730.00 kg
长度 0.30 m
直径 4.10 m
跨度 29.00 m
形状 Box + pan
制造商 SPXS
平台类型 Starlink V2M
阶段状态 In Orbit
所有者/国家 SPXS/US

大型星座

Loading constellations...